PERSEUS-M1

Last updated on Wed Nov 05 2025 00:03:48 GMT+0000 (Coordinated Universal Time)

1 40039U 14033AF 25308.63739694 .00003137 00000+0 29599-3 0 9992 2 40039 97.9402 244.5895 0010970 330.4853 29.5747 14.94470956617084
UTC large
Height (km)
Speed (km/s)
/
Latitude / Longitude
Inclination (degrees)
Orbital Period (minutes)
Azimuth
Elevation
Range (km)
Doppler Factor

Next 0 passes for location: London (51.5072 / 0.1276)

Sorry there are no passes over London.